"2009-04-12 00:00:30",792332,4.181,235.9,8.68,1.17,10.63,103.8262,9.07,10.18,50.13,0,110.1,13.36,9.85,197.9
"2009-04-12 00:01:00",792333,4.257,236.4,6.444,1.365,11.6,103.8268,9.07,10.32,50.28,0,110.1,13.36,9.85,198.4
"2009-04-12 00:01:30",792334,3.836,235.3,6.171,1.505,10.35,103.8265,9.07,10.1,50.05,0,110.1,13.36,9.85,197.3
"2009-04-12 00:02:00",792335,3.34,234.2,8.96,1.188,10.05,103.8253,9.07,10.24,50.28,0,110.1,13.36,9.85,196.2
"2009-04-12 00:02:30",792336,3.677,232.7,6.535,0.938,8.7,103.8259,9.07,10.08,50.08,0,110.1,13.36,9.85,194.7
"2009-04-12 00:03:00",792337,3.463,233.8,2.486,0.098,8.14,103.8293,9.08,10.07,49.81,0,110.1,13.4,9.86,195.8
"2009-04-12 00:03:30",792338,4.512,244,8.5,1.298,10.45,103.8377,9.1,10.22,49.8,0,110.1,13.36,9.88,206.0
"2009-04-12 00:04:00",792339,3.629,237,3.419,0.867,9.56,103.8412,9.11,10.22,49.76,0,110.1,13.36,9.89,199.0
"2009-04-12 00:04:30",792340,3.865,237.6,4.653,1.095,9.64,103.8406,9.11,10.16,49.63,0,110.1,13.36,9.89,199.6
"2009-04-12 00:05:00",792341,4.721,246.6,5.658,1.394,11.77,103.8428,9.11,10.25,49.81,0,110.1,13.36,9.90,208.6
"2009-04-12 00:05:30",792342,3.719,244.4,7.403,1.323,10.41,103.8496,9.13,10.3,49.89,0,110.1,13.35,9.91,206.4
"2009-04-12 00:06:00",792343,4.492,247.5,6.294,1.356,10.77,103.8516,9.13,10.19,49.74,0,110.1,13.35,9.92,209.5
"2009-04-12 00:06:30",792344,3.494,242.4,5.385,1.055,9.57,103.8539,9.14,10.3,49.82,0,110.1,13.35,9.92,204.4
"2009-04-12 00:07:00",792345,3.946,246.6,5.664,0.855,8.69,103.8567,9.15,10.13,49.64,0,110.1,13.35,9.93,208.6
"2009-04-12 00:07:30",792346,3.567,243.8,6.307,0.961,9.17,103.8596,9.15,10.28,49.67,0,110.1,13.35,9.94,205.8
"2009-04-12 00:08:00",792347,4.634,244.2,8.31,1.332,11.49,103.8618,9.16,10.3,49.58,0,110.1,13.35,9.94,206.2
"2009-04-12 00:08:30",792348,3.517,236.8,8.49,1.372,9.88,103.8627,9.16,10.19,49.33,0,110.1,13.36,9.95,198.8
"2009-04-12 00:09:00",792349,4.046,248.1,8.24,1.125,11.05,103.8621,9.16,10.41,49.44,0,110.1,13.36,9.95,210.1
"2009-04-12 00:09:30",792350,4.436,237.3,7.858,1.212,10.35,103.8609,9.16,10.26,49.2,0,110.1,13.36,9.94,199.3
"2009-04-12 00:10:00",792351,3.855,243.3,8.37,1.39,10.18,103.8618,9.16,10.33,49.29,0,110.1,13.36,9.94,205.3
"2009-04-12 00:10:30",792352,3.906,240.3,5.504,1.325,10.39,103.8633,9.16,10.3,49.21,0,110.1,13.36,9.95,202.3
"2009-04-12 00:11:00",792353,2.661,248.4,6.67,0.221,8.2,103.8642,9.17,10.18,49.12,0,110.1,13.4,9.95,210.4
"2009-04-12 00:11:30",792354,3.647,260.7,7.148,1.449,10.44,103.863,9.16,10.32,49.3,0,110.1,13.36,9.95,222.7
"2009-04-12 00:12:00",792355,3.747,265.9,10.01,1.279,10.96,103.8627,9.16,10.31,49.31,0,110.1,13.36,9.95,227.9
"2009-04-12 00:12:30",792356,3.593,268.8,6.479,1.207,10.87,103.863,9.16,10.31,49.24,0,110.1,13.36,9.95,230.8
"2009-04-12 00:13:00",792357,2.467,266.3,5.627,0.128,8.89,103.8644,9.17,10.23,49.18,0,110.1,13.4,9.95,228.3
"2009-04-12 00:13:30",792358,3.875,271.5,8.24,1.348,11.12,103.8662,9.17,10.33,49.33,0,110.1,13.36,9.96,233.5
"2009-04-12 00:14:00",792359,4.037,261,6.177,1.349,11.31,103.8671,9.17,10.41,49.36,0,110.1,13.36,9.96,223.0
"2009-04-12 00:14:30",792360,3.458,254,7.243,1.309,9.59,103.8671,9.17,10.22,49.19,0,110.1,13.36,9.96,216.0
"2009-04-12 00:15:00",792361,2.52,253.1,4.594,0.155,7.961,103.868,9.18,10.23,49.12,0,110.1,13.4,9.96,215.1
"2009-04-12 00:15:30",792362,2.589,254.4,3.306,0.088,7.929,103.8677,9.18,10.21,49.09,0,110.1,13.4,9.96,216.4
"2009-04-12 00:16:00",792363,4.136,267.5,6.986,1.522,10.51,103.8674,9.17,10.33,49.17,0,110.1,13.36,9.96,229.5
"2009-04-12 00:16:30",792364,4.509,268.4,5.589,1.326,11.77,103.8668,9.17,10.42,49.28,0,110.1,13.36,9.96,230.4
"2009-04-12 00:17:00",792365,3.418,271.3,8.3,1.34,10.62,103.8671,9.17,10.31,49.15,0,110.1,13.37,9.96,233.3
"2009-04-12 00:17:30",792366,2.335,261.9,2.449,0.124,8.64,103.8706,9.18,10.31,49.27,0,110.1,13.4,9.97,223.9
"2009-04-12 00:18:00",792367,4.25,279,8.02,1.215,11.74,103.8697,9.18,10.34,49.34,0,110.1,13.36,9.96,241.0
"2009-04-12 00:18:30",792368,4.308,275.4,6.042,1.273,11.36,103.8682,9.18,10.45,49.54,0,110.1,13.36,9.96,237.4
"2009-04-12 00:19:00",792369,2.53,269.6,2.999,0.248,8.08,103.8694,9.18,10.24,49.38,0,110.1,13.4,9.96,231.6
"2009-04-12 00:19:30",792370,2.71,265.7,4.873,0.118,7.603,103.8694,9.18,10.24,49.37,0,110.1,13.4,9.96,227.7
"2009-04-12 00:20:00",792371,2.41,263.9,3.76,0.108,7.93,103.8688,9.18,10.23,49.38,0,110.1,13.4,9.96,225.9
"2009-04-12 00:20:30",792372,2.483,261.5,5.504,0.441,8.49,103.8709,9.18,10.24,49.42,0,110.1,13.37,9.97,223.5
"2009-04-12 00:21:00",792373,3.714,266.9,9.04,1.247,12.1,103.8741,9.19,10.45,49.64,0,110.1,13.36,9.98,228.9
"2009-04-12 00:21:30",792374,3.264,257.7,8.07,1.346,11.74,103.872,9.19,10.36,49.52,0,110.1,13.36,9.97,219.7
"2009-04-12 00:22:00",792375,2.313,248.4,3.443,0.312,8.65,103.8708,9.18,10.24,49.41,0,110.1,13.4,9.97,210.4
"2009-04-12 00:22:30",792376,3.137,248.3,6.605,1.081,10.15,103.8726,9.19,10.44,49.54,0,110.1,13.36,9.97,210.3
"2009-04-12 00:23:00",792377,4.042,254.8,7.196,1.334,11.25,103.875,9.19,10.43,49.47,0,110.1,13.36,9.98,216.8
"2009-04-12 00:23:30",792378,2.559,241.9,3.68,0.058,8.14,103.8726,9.19,10.25,49.26,0,110.1,13.4,9.97,203.9
"2009-04-12 00:24:00",792379,2.589,238.3,2.067,0.071,7.752,103.8721,9.19,10.23,49.24,0,110.1,13.4,9.97,200.3
"2009-04-12 00:24:30",792380,2.715,235.8,2.171,0.073,8.06,103.8741,9.19,10.24,49.23,0,110.1,13.4,9.98,197.8
"2009-04-12 00:25:00",792381,3.778,241.6,7.23,1.338,10.7,103.8753,9.2,10.34,49.33,0,110.1,13.37,9.98,203.6
"2009-04-12 00:25:30",792382,3.64,245.5,6.347,1.195,12.33,103.8762,9.2,10.48,49.48,0,110.1,13.37,9.98,207.5
"2009-04-12 00:26:00",792383,3.314,250,7.718,1.201,10.4,103.8773,9.2,10.26,49.24,0,110.1,13.37,9.98,212.0
"2009-04-12 00:26:30",792384,3.179,245.2,5.792,1.129,10.25,103.8782,9.2,10.39,49.38,0,110.1,13.37,9.99,207.2
"2009-04-12 00:27:00",792385,4.369,247.7,7.79,1.209,12.12,103.8809,9.21,10.43,49.47,0,110.1,13.37,9.99,209.7
"2009-04-12 00:27:30",792386,3.383,243.8,5.766,1.209,9.85,103.8811,9.21,10.38,49.42,0,110.1,13.37,9.99,205.8
"2009-04-12 00:28:00",792387,2.431,239.3,1.401,0.135,7.965,103.8814,9.21,10.23,49.31,0,110.1,13.4,9.99,201.3
"2009-04-12 00:28:30",792388,2.281,241.2,2.314,0.091,7.926,103.8797,9.21,10.23,49.32,0,110.1,13.4,9.99,203.2
"2009-04-12 00:29:00",792389,2.22,248.5,3.475,0.469,8.27,103.8823,9.21,10.23,49.37,0,110.1,13.37,10.00,210.5
"2009-04-12 00:29:30",792390,3.53,254.2,5.78,1.27,11.09,103.8826,9.21,10.45,49.59,0,110.1,13.37,10.00,216.2
"2009-04-12 00:30:00",792391,2.552,250.2,15.55,1.321,10.7,103.8823,9.21,10.47,49.59,0,110.1,13.37,10.00,212.2
"2009-04-12 00:30:30",792392,1.891,257.4,11.1,0.725,9.5,103.8829,9.21,10.33,49.45,0,110.1,13.38,10.00,219.4
"2009-04-12 00:31:00",792393,2.175,262.9,8.69,0.967,9.3,103.885,9.22,10.25,49.35,0,110.1,13.37,10.00,224.9
"2009-04-12 00:31:30",792394,2.565,266.3,7.314,1.161,10.14,103.8835,9.22,10.39,49.52,0,110.1,13.37,10.00,228.3
"2009-04-12 00:32:00",792395,3.459,273.5,7.335,1.182,11.69,103.8853,9.22,10.42,49.6,0,110.1,13.37,10.00,235.5
"2009-04-12 00:32:30",792396,1.695,269.8,3.02,0.155,7.855,103.8864,9.22,10.24,49.44,0,110.1,13.41,10.01,231.8
"2009-04-12 00:33:00",792397,1.493,274.9,3.487,0.135,7.489,103.887,9.23,10.24,49.48,0,110.1,13.41,10.01,236.9
"2009-04-12 00:33:30",792398,1.693,273.1,2.211,0.108,7.518,103.887,9.23,10.24,49.5,0,110.1,13.41,10.01,235.1
"2009-04-12 00:34:00",792399,1.212,271.2,3.395,0.247,7.919,103.8873,9.23,10.24,49.48,0,110.1,13.41,10.01,233.2
"2009-04-12 00:34:30",792400,1.642,267.2,6.953,1.12,9.11,103.8885,9.23,10.24,49.49,0,110.1,13.38,10.01,229.2
"2009-04-12 00:35:00",792401,1.877,260.2,4.408,1.14,10.1,103.8861,9.22,10.4,49.64,0,110.1,13.38,10.01,222.2
"2009-04-12 00:35:30",792402,1.5,267.8,8.6,0.958,9.51,103.8855,9.22,10.27,49.54,0,110.1,13.38,10.01,229.8
"2009-04-12 00:36:00",792403,2.017,285.4,7.661,1.366,10.61,103.8849,9.22,10.39,49.64,0,110.1,13.38,10.00,247.4
"2009-04-12 00:36:30",792404,0.919,294.1,5.419,0.091,8.29,103.8872,9.23,10.27,49.52,0,110.1,13.42,10.01,256.1
"2009-04-12 00:37:00",792405,0.844,288.4,3.086,0.106,8.19,103.8975,9.25,10.27,49.52,0,110.1,13.41,10.04,250.4
"2009-04-12 00:37:30",792406,0.916,268.2,7.574,0.208,8.64,103.9091,9.28,10.29,49.52,0,110.1,13.41,10.07,230.2
"2009-04-12 00:38:00",792407,2.388,271.8,10.99,1.333,11.65,103.9155,9.3,10.55,49.77,0,110.1,13.37,10.08,233.8
"2009-04-12 00:38:30",792408,1.714,294.5,9.67,1.396,10.15,103.9191,9.31,10.43,49.56,0,110.1,13.37,10.09,256.5
"2009-04-12 00:39:00",792409,0.465,280.1,9.39,0.244,7.432,103.9209,9.31,10.31,49.45,0,110.1,13.4,10.10,242.1
"2009-04-12 00:39:30",792410,0.75,290.7,8.06,0.048,6.894,103.9185,9.31,10.3,49.46,0,110.1,13.4,10.09,252.7
"2009-04-12 00:40:00",792411,0.482,285.7,7.072,0.183,6.968,103.9258,9.32,10.32,49.41,0,110.1,13.4,10.11,247.7
"2009-04-12 00:40:30",792412,0.19,280.9,14.13,0.043,7.16,103.9387,9.36,10.34,49.37,0,110.1,13.4,10.14,242.9
"2009-04-12 00:41:00",792413,0.213,258,6.492,0.086,7.425,103.9422,9.37,10.35,49.33,0,110.1,13.4,10.15,220.0
"2009-04-12 00:41:30",792414,0.27,259.4,15.86,0.185,7.784,103.9401,9.36,10.37,49.3,0,110.1,13.4,10.15,221.4
"2009-04-12 00:42:00",792415,0.675,270.4,7.554,0.074,8.14,103.9448,9.37,10.39,49.22,0,110.1,13.41,10.16,232.4
"2009-04-12 00:42:30",792416,0.517,270.3,4.23,0.103,8.69,103.9608,9.41,10.5,49.27,0,110.1,13.41,10.20,232.3
"2009-04-12 00:43:00",792417,1.53,284.3,8.44,1.331,10.84,103.9681,9.43,10.5,49.22,0,110.1,13.38,10.22,246.3
"2009-04-12 00:43:30",792418,0.273,279.3,6.587,0.076,8.75,103.9666,9.43,10.52,49.19,0,110.1,13.42,10.21,241.3
"2009-04-12 00:44:00",792419,0.274,354.1,75.23,0.709,8.3,103.9826,9.47,10.54,49.17,0,110.1,13.38,10.25,316.1
"2009-04-12 00:44:30",792420,1.336,221.4,29.88,1.277,9.88,103.9958,9.5,10.54,49.03,0,110.1,13.38,10.29,183.4
"2009-04-12 00:45:00",792421,0.645,223.4,3.885,0.092,7.956,103.9952,9.5,10.5,48.91,0,110.1,13.41,10.29,185.4
"2009-04-12 00:45:30",792422,0.652,216.5,4.17,0.093,8.05,104.0028,9.52,10.55,48.83,0,110.1,13.41,10.31,178.5
"2009-04-12 00:46:00",792423,1.045,215.1,4.665,0.673,8.29,104.0245,9.58,10.54,48.75,0,110.1,13.38,10.36,177.1
"2009-04-12 00:46:30",792424,1.822,220,8.72,1.264,11.01,104.0284,9.59,10.77,48.86,0,110.1,13.38,10.37,182.0
"2009-04-12 00:47:00",792425,2.086,216.5,6.989,1.36,11.25,104.0377,9.61,10.77,48.78,0,110.2,13.37,10.40,178.5
"2009-04-12 00:47:30",792426,0.783,213.1,7.193,0.708,8.15,104.0547,9.65,10.62,48.56,0,110.2,13.37,10.44,175.1
"2009-04-12 00:48:00",792427,0.408,226.5,6.368,0.073,7.629,104.0623,9.67,10.63,48.48,0,110.2,13.4,10.46,188.5
"2009-04-12 00:48:30",792428,0.327,236.5,4.916,0.059,7.41,104.0634,9.68,10.66,48.44,0,110.2,13.4,10.46,198.5
"2009-04-12 00:49:00",792429,0.368,230.9,8.04,0.074,7.53,104.0817,9.72,10.69,48.35,0,110.2,13.4,10.51,192.9
"2009-04-12 00:49:30",792430,0.242,227.4,9.74,0.05,7.913,104.0942,9.75,10.71,48.26,0,110.2,13.4,10.54,189.4
"2009-04-12 00:50:00",792431,1.125,202.5,37.31,1.242,9.52,104.0964,9.76,10.77,48.25,0,110.2,13.37,10.55,164.5
"2009-04-12 00:50:30",792432,1.188,182.6,5.335,1.263,10.11,104.1066,9.79,10.87,48.17,0,110.2,13.37,10.57,144.6
"2009-04-12 00:51:00",792433,0.01,179.4,13.32,0.061,8.16,104.1153,9.81,10.85,48.04,0,110.2,13.4,10.60,141.4
"2009-04-12 00:51:30",792434,0.981,274.9,41.51,1.299,9.92,104.1272,9.84,10.85,47.94,0,110.2,13.37,10.63,236.9
"2009-04-12 00:52:00",792435,0.077,11.83,35.04,0.255,7.98,104.13,9.85,10.92,47.9,0,110.2,13.4,10.63,333.8
"2009-04-12 00:52:30",792436,0.038,27.47,14.47,0.057,7.499,104.13,9.85,10.81,47.7,0,110.2,13.4,10.63,349.5
"2009-04-12 00:53:00",792437,0.109,27.63,12.29,0.077,7.754,104.13,9.85,10.84,47.65,0,110.2,13.4,10.63,349.6
"2009-04-12 00:53:30",792438,0.514,42.1,4.213,0.104,8.29,104.1303,9.85,10.85,47.58,0,110.2,13.4,10.63,4.1
"2009-04-12 00:54:00",792439,0.359,56.51,14.26,0.064,8.57,104.1385,9.87,10.86,47.55,0,110.2,13.4,10.65,18.5
"2009-04-12 00:54:30",792440,0.877,56.32,8.07,0.966,9.69,104.1497,9.9,10.97,47.6,0,110.2,13.37,10.68,18.3
"2009-04-12 00:55:00",792441,2.191,43.96,16.45,1.283,12.2,104.154,9.91,11.16,47.74,0,110.2,13.36,10.69,6.0
"2009-04-12 00:55:30",792442,0.975,38.93,7.425,1.024,9.61,104.1557,9.91,10.92,47.48,0,110.2,13.36,10.70,0.9
"2009-04-12 00:56:00",792443,0.445,31.31,7.978,0.115,8.07,104.1554,9.91,10.9,47.47,0,110.2,13.39,10.70,353.3
"2009-04-12 00:56:30",792444,0.755,39.35,3.217,0.078,7.809,104.1551,9.91,10.89,47.55,0,110.2,13.39,10.70,1.3
"2009-04-12 00:57:00",792445,1.06,23.62,44.3,1.214,8.8,104.1444,9.88,10.98,47.63,0,110.2,13.36,10.67,345.6
"2009-04-12 00:57:30",792446,2.297,7.155,16.85,1.167,11.91,104.1331,9.85,11.03,47.69,0,110.2,13.36,10.64,329.2
"2009-04-12 00:58:00",792447,0.852,349.5,9.85,1.052,9.33,104.13,9.85,11.02,47.7,0,110.2,13.36,10.63,311.5
"2009-04-12 00:58:30",792448,0.844,334.6,13.67,1.084,8.75,104.13,9.85,10.89,47.52,0,110.2,13.36,10.63,296.6
"2009-04-12 00:59:00",792449,0.235,337.7,12.38,0.081,7.764,104.13,9.85,10.88,47.49,0,110.2,13.4,10.63,299.7
"2009-04-12 00:59:30",792450,0.419,322,5.933,0.075,7.987,104.1297,9.85,10.87,47.48,0,110.2,13.4,10.63,284.0
"2009-04-12 01:00:00",792451,0.611,324.3,9.53,0.067,8.07,104.1249,9.83,10.85,47.52,0,110.2,13.4,10.62,286.3
"2009-04-12 01:00:30",792452,0.494,329.2,9.49,0.058,8.44,104.1136,9.8,10.85,47.54,0,110.2,13.4,10.59,291.2
"2009-04-12 01:01:00",792453,0.318,354.7,11.37,0.129,8.8,104.1088,9.79,10.84,47.55,0,110.2,13.4,10.58,316.7
"2009-04-12 01:01:30",792454,0.533,347.2,14.56,0.828,9.36,104.0967,9.76,10.93,47.65,0,110.2,13.37,10.55,309.2
"2009-04-12 01:02:00",792455,2.168,336.7,14.37,1.247,12.52,104.0961,9.76,11.06,47.83,0,110.2,13.36,10.55,298.7
"2009-04-12 01:02:30",792456,1.155,334,4.665,1.233,10.52,104.0933,9.75,10.94,47.76,0,110.2,13.36,10.54,296.0
"2009-04-12 01:03:00",792457,0.331,338.1,4.997,0.064,8.37,104.0851,9.73,10.79,47.66,0,110.2,13.4,10.52,300.1
"2009-04-12 01:03:30",792458,0.492,353.1,9.58,0.899,9.43,104.0708,9.69,10.86,47.78,0,110.2,13.36,10.48,315.1
"2009-04-12 01:04:00",792459,1.047,347.3,12.78,1.191,9.25,104.0623,9.67,10.83,47.8,0,110.2,13.36,10.46,309.3
"2009-04-12 01:04:30",792460,1.301,9.8,13.08,1.354,10.18,104.0623,9.67,10.8,47.83,0,110.2,13.36,10.46,331.8
"2009-04-12 01:05:00",792461,1.188,18.61,28.2,1.238,9.64,104.0606,9.67,10.86,48.02,0,110.2,13.36,10.45,340.6
"2009-04-12 01:05:30",792462,0.206,15.02,9.81,0.166,7.475,104.0465,9.63,10.7,47.91,0,110.2,13.4,10.42,337.0
"2009-04-12 01:06:00",792463,0.252,351.3,11.87,0.197,7.507,104.0383,9.61,10.69,47.99,0,110.2,13.4,10.40,313.3
"2009-04-12 01:06:30",792464,0.672,346.9,7.492,0.108,7.507,104.0296,9.59,10.68,48.06,0,110.2,13.4,10.38,308.9
"2009-04-12 01:07:00",792465,0.656,353.7,13.17,0.24,7.885,104.0284,9.59,10.63,48.1,0,110.2,13.4,10.37,315.7
"2009-04-12 01:07:30",792466,0.923,345.7,2.99,0.093,8.03,104.0284,9.59,10.65,48.18,0,110.2,13.4,10.37,307.7
"2009-04-12 01:08:00",792467,0.83,342.1,9.5,0.181,8.45,104.0197,9.56,10.62,48.24,0,110.2,13.4,10.35,304.1
"2009-04-12 01:08:30",792468,0.999,350.5,12.35,0.214,8.84,104.0005,9.52,10.6,48.31,0,110.2,13.37,10.30,312.5
"2009-04-12 01:09:00",792469,1.74,13.96,5.521,1.186,10.74,103.9946,9.5,10.77,48.54,0,110.2,13.37,10.29,336.0
"2009-04-12 01:09:30",792470,2.59,13.75,9.06,1.194,11.67,103.9946,9.5,10.72,48.62,0,110.2,13.37,10.29,335.8
"2009-04-12 01:10:00",792471,3.634,27.09,6.562,1.292,12.37,103.994,9.5,10.81,49.01,0,110.2,13.36,10.28,349.1
"2009-04-12 01:10:30",792472,3.39,25.34,6.211,1.275,10.75,103.9873,9.48,10.73,49.16,0,110.2,13.36,10.27,347.3
"2009-04-12 01:11:00",792473,3.151,31.52,8.2,1.214,9.91,103.9686,9.43,10.69,49.29,0,110.2,13.36,10.22,353.5
"2009-04-12 01:11:30",792474,1.804,19.2,5.61,0.289,7.736,103.9607,9.41,10.51,49.21,0,110.2,13.4,10.20,341.2
"2009-04-12 01:12:00",792475,0.798,11.79,5.225,0.289,7.96,103.9607,9.41,10.51,49.18,0,110.2,13.4,10.20,333.8
"2009-04-12 01:12:30",792476,1.61,22.67,3.548,0.167,8.02,103.9551,9.4,10.48,49.12,0,110.2,13.4,10.18,344.7
"2009-04-12 01:13:00",792477,1.799,21.69,3.925,0.226,8.52,103.9435,9.37,10.48,49.21,0,110.2,13.4,10.15,343.7
"2009-04-12 01:13:30",792478,1.974,25.82,3.424,0.235,9.01,103.9272,9.33,10.45,49.29,0,110.2,13.4,10.11,347.8
"2009-04-12 01:14:00",792479,3.818,38.22,7.59,1.388,12.59,103.9269,9.33,10.68,49.56,0,110.3,13.36,10.11,0.2
"2009-04-12 01:14:30",792480,3.585,34.34,6.943,1.354,12.58,103.921,9.31,10.72,49.79,0,110.2,13.36,10.10,356.3
"2009-04-12 01:15:00",792481,3.841,35.52,6.911,1.071,12.8,103.9026,9.26,10.63,49.75,0,110.2,13.37,10.05,357.5
"2009-04-12 01:15:30",792482,2.056,31.94,6.749,0.958,9.05,103.893,9.24,10.53,49.76,0,110.2,13.37,10.02,353.9
"2009-04-12 01:16:00",792483,1.735,28.07,4.637,0.156,7.727,103.8927,9.24,10.35,49.65,0,110.2,13.4,10.02,350.1
"2009-04-12 01:16:30",792484,2.155,33.33,3.853,0.342,7.808,103.875,9.19,10.34,49.76,0,110.2,13.4,9.98,355.3
"2009-04-12 01:17:00",792485,2.343,33.19,4.424,0.461,8.18,103.8621,9.16,10.31,50,0,110.2,13.41,9.95,355.2
"2009-04-12 01:17:30",792486,2.522,41.54,2.718,0.235,8.74,103.8598,9.16,10.29,50.26,0,110.2,13.41,9.94,3.5
"2009-04-12 01:18:00",792487,4.169,48.29,6.518,1.318,11.56,103.8463,9.12,10.34,50.36,0,110.2,13.38,9.90,10.3
"2009-04-12 01:18:30",792488,4.793,51.98,6.682,1.224,13.26,103.8329,9.09,10.49,50.66,0,110.3,13.38,9.87,14.0
"2009-04-12 01:19:00",792489,5.073,47.21,6.368,0.872,13.59,103.8309,9.08,10.44,50.71,0,110.2,13.38,9.87,9.2
"2009-04-12 01:19:30",792490,2.983,39.71,7.35,1.328,10.19,103.8127,9.03,10.35,50.57,0,110.2,13.38,9.82,1.7
"2009-04-12 01:20:00",792491,2.013,37,2.74,0.184,7.997,103.8038,9.01,10.2,50.43,0,110.1,13.41,9.80,359.0
"2009-04-12 01:20:30",792492,1.986,40.49,4.081,0.304,7.849,103.8035,9.01,10.13,50.34,0,110.1,13.41,9.80,2.5
"2009-04-12 01:21:00",792493,2.692,46.88,1.318,0.107,8.19,103.7941,8.99,10.11,50.43,0,110.1,13.41,9.77,8.9
"2009-04-12 01:21:30",792494,2.685,47.26,1.611,0.07,8.6,103.783,8.96,10.08,50.6,0,110.1,13.41,9.74,9.3
"2009-04-12 01:22:00",792495,3.408,54.23,7.994,1.187,11.07,103.7807,8.95,10.27,50.96,0,110.1,13.38,9.74,16.2
"2009-04-12 01:22:30",792496,4.455,60.46,6.715,1.183,13.39,103.7834,8.96,10.32,51.09,0,110.1,13.38,9.74,22.5
"2009-04-12 01:23:00",792497,4.12,51.37,6.813,1.287,11.47,103.7761,8.94,10.23,51.07,0,110.1,13.38,9.72,13.4
"2009-04-12 01:23:30",792498,4.036,53.67,5.833,1.356,11.24,103.7587,8.9,10.14,51.11,0,110.1,13.38,9.68,15.7
"2009-04-12 01:24:00",792499,3.25,50.11,5.379,0.931,9.28,103.7565,8.89,10.13,51.27,0,110.1,13.38,9.67,12.1
"2009-04-12 01:24:30",792500,2.83,50.96,1.371,0.1,8.1,103.7577,8.89,9.96,51.26,0,110.1,13.41,9.68,13.0
"2009-04-12 01:25:00",792501,2.572,55.31,2.636,0.094,8.42,103.7569,8.89,9.95,51.35,0,110.1,13.41,9.68,17.3
"2009-04-12 01:25:30",792502,3.175,59.81,6.032,0.991,10.13,103.7515,8.88,10.05,51.46,0,110.1,13.38,9.66,21.8
"2009-04-12 01:26:00",792503,3.807,67,6.276,1.349,11.14,103.7369,8.84,9.94,51.5,0,110.1,13.38,9.62,29.0
"2009-04-12 01:26:30",792504,4.639,77.75,6.946,1.032,13.6,103.7253,8.81,10.15,51.78,0,110.2,13.38,9.59,39.8
"2009-04-12 01:27:00",792505,4.179,80.3,7.095,1.258,12.26,103.725,8.81,10.08,51.71,0,110.1,13.38,9.59,42.3
"2009-04-12 01:27:30",792506,3.163,81.8,4.915,1.166,10.01,103.725,8.81,9.95,51.61,0,110.1,13.38,9.59,43.8
"2009-04-12 01:28:00",792507,3.865,82.8,5.817,1.237,10.91,103.725,8.81,9.98,51.7,0,110.1,13.38,9.59,44.8
"2009-04-12 01:28:30",792508,2.832,83.2,1.98,0.109,8.52,103.725,8.81,9.84,51.62,0,110.1,13.41,9.59,45.2
"2009-04-12 01:29:00",792509,2.849,84.5,1.669,0.158,8.54,103.7191,8.8,9.84,51.63,0,110.1,13.41,9.58,46.5
"2009-04-12 01:29:30",792510,3.836,83.5,7.491,1.382,10.91,103.712,8.78,9.88,51.68,0,110.1,13.38,9.56,45.5
"2009-04-12 01:30:00",792511,3.876,85.8,7.297,1.36,11.54,103.6996,8.75,10,51.85,0,110.1,13.38,9.53,47.8
"2009-04-12 01:30:30",792512,4.588,87.2,6.461,1.184,12.35,103.692,8.73,9.98,51.92,0,110.1,13.38,9.51,49.2
"2009-04-12 01:31:00",792513,4.691,85.1,6.663,1.185,12.41,103.6912,8.72,10,52,0,110.1,13.38,9.51,47.1
"2009-04-12 01:31:30",792514,3.362,90,10.5,1.156,10.97,103.6912,8.72,10.08,52.01,0,110.1,13.38,9.51,52.0
"2009-04-12 01:32:00",792515,2.723,92.8,5.064,1.185,9.84,103.6912,8.72,9.78,51.54,0,110.1,13.38,9.51,54.8
"2009-04-12 01:32:30",792516,2.034,95.9,1.949,0.064,8.43,103.6912,8.72,9.77,51.37,0,110.1,13.42,9.51,57.9
"2009-04-12 01:33:00",792517,2.103,97.6,3.136,0.148,8.3,103.6912,8.72,9.77,51.27,0,110.1,13.39,9.51,59.6
"2009-04-12 01:33:30",792518,2.362,99.3,5.71,0.793,9.5,103.6855,8.71,9.9,51.38,0,110.1,13.39,9.49,61.3
"2009-04-12 01:34:00",792519,2.819,111,3.973,1.253,10.17,103.6677,8.66,9.78,51.19,0,110.1,13.39,9.45,73.0
"2009-04-12 01:34:30",792520,2.231,114.3,1.184,0.092,8.66,103.6587,8.64,9.73,51.18,0,110.1,13.43,9.42,76.3
"2009-04-12 01:35:00",792521,3.795,121.1,7.305,1.297,11.79,103.6573,8.64,9.98,51.51,0,110.1,13.39,9.42,83.1
"2009-04-12 01:35:30",792522,4.642,123.3,6.437,1.039,13.06,103.6573,8.64,10.01,51.59,0,110.1,13.39,9.42,85.3
"2009-04-12 01:36:00",792523,3.829,118.9,7.293,1.311,11.29,103.6579,8.64,9.8,51.37,0,110.1,13.39,9.42,80.9
"2009-04-12 01:36:30",792524,2.43,110.9,2.998,0.099,8.44,103.659,8.64,9.79,51.35,0,110.1,13.43,9.42,72.9
"2009-04-12 01:37:00",792525,3.013,139.9,13.21,0.471,8.07,103.6591,8.64,9.7,51.33,0,110.1,13.43,9.42,101.9
"2009-04-12 01:37:30",792526,4.84,143.3,5.612,1.182,10.17,103.656,8.63,9.74,51.53,0,110.1,13.39,9.42,105.3
"2009-04-12 01:38:00",792527,5.504,152.6,9.46,1.54,11.29,103.6444,8.6,9.86,51.73,0,110.1,13.39,9.39,114.6
"2009-04-12 01:38:30",792528,6.788,151,7.805,1.511,11.56,103.6372,8.59,9.85,51.81,0,110.1,13.39,9.37,113.0
"2009-04-12 01:39:00",792529,7.549,159.8,7.388,1.273,12.83,103.6389,8.59,9.9,51.9,0,110.1,13.39,9.37,121.8
"2009-04-12 01:39:30",792530,7.211,164.7,7.833,1.128,11.92,103.6436,8.6,9.85,51.83,0,110.1,13.39,9.38,126.7
"2009-04-12 01:40:00",792531,5.948,166.1,11.21,1.151,10.79,103.6466,8.61,9.82,51.88,0,110.1,13.39,9.39,128.1
"2009-04-12 01:40:30",792532,4.851,171.3,4.786,0.354,8.96,103.6447,8.61,9.75,51.88,0,110.1,13.43,9.39,133.3
"2009-04-12 01:41:00",792533,6.154,176.9,8.54,1.56,10.86,103.6394,8.59,9.68,51.85,0,110.1,13.39,9.37,138.9
"2009-04-12 01:41:30",792534,5.422,179,7.675,0.659,9.46,103.6315,8.57,9.79,52.04,0,110.1,13.39,9.35,141.0
"2009-04-12 01:42:00",792535,8.13,194.4,10.94,1.283,12.42,103.6315,8.57,9.85,52.14,0,110.1,13.4,9.35,156.4
"2009-04-12 01:42:30",792536,8.41,190,7.357,1.216,12.53,103.6251,8.56,9.83,52.13,0,110.1,13.4,9.34,152.0
"2009-04-12 01:43:00",792537,7.575,193.7,6.891,1.371,11.02,103.6238,8.55,9.65,51.91,0,110.1,13.39,9.33,155.7
"2009-04-12 01:43:30",792538,9.35,188.8,6.291,1.624,11.21,103.6235,8.55,9.72,52.02,0,110,13.39,9.33,150.8
"2009-04-12 01:44:00",792539,9,190.7,6.476,1.165,10.42,103.6232,8.55,9.69,51.99,0,110,13.39,9.33,152.7
"2009-04-12 01:44:30",792540,9.24,192.8,6.616,1.312,11.93,103.6247,8.55,9.8,52.16,0,110.1,13.39,9.34,154.8
"2009-04-12 01:45:00",792541,9.57,196.1,7.04,0.987,12.63,103.6244,8.55,9.76,52.13,0,110,13.39,9.34,158.1
"2009-04-12 01:45:30",792542,8.95,193.7,8.01,1.155,11.06,103.6238,8.55,9.68,52.06,0,110,13.39,9.33,155.7
"2009-04-12 01:46:00",792543,7.836,186.3,3.623,0.713,8.57,103.6184,8.54,9.53,51.93,0,110,13.39,9.32,148.3
"2009-04-12 01:46:30",792544,9.22,193.5,7.489,1.165,11.12,103.6145,8.53,9.72,52.19,0,110,13.39,9.31,155.5
"2009-04-12 01:47:00",792545,9.24,194.1,6.072,1.241,12.25,103.6097,8.52,9.78,52.27,0,110,13.39,9.30,156.1
"2009-04-12 01:47:30",792546,10.44,197,5.576,0.89,13.31,103.6057,8.51,9.78,52.3,0,110,13.39,9.29,159.0
"2009-04-12 01:48:00",792547,10.05,194.8,7.167,1.226,11.41,103.5961,8.48,9.74,52.38,0,110.1,13.4,9.26,156.8
"2009-04-12 01:48:30",792548,10.04,198.1,6.72,1.247,11.21,103.5908,8.47,9.66,52.29,0,110.1,13.4,9.25,160.1
"2009-04-12 01:49:00",792549,9.3,195.4,5.492,1.057,9.61,103.5908,8.47,9.54,52.2,0,110.1,13.4,9.25,157.4
"2009-04-12 01:49:30",792550,10.12,197.1,6.152,1.555,11.42,103.5908,8.47,9.66,52.33,0,110,13.4,9.25,159.1
"2009-04-12 01:50:00",792551,10.87,200.9,5.911,1.117,12.64,103.5908,8.47,9.73,52.47,0,110.1,13.4,9.25,162.9
"2009-04-12 01:50:30",792552,11.37,205.7,3.098,0.855,13.43,103.5908,8.47,9.79,52.58,0,110,13.4,9.25,167.7
"2009-04-12 01:51:00",792553,9.88,203,7.204,1.236,11.86,103.5905,8.47,9.67,52.44,0,110,13.4,9.25,165.0